Location: Bonny Doon Airfield
(37.0704°N, 122.1252°W)
Time: 17:23:20
(UTC-07:00)

N. Korean satellite - Pass Details

Date: 09 October 2017
Orbit: 459 x 517 km, 97.2° (Epoch: 17 October)

Event Time Altitude Azimuth Distance (km) Brightness Sun altitude
Rises 19:53:41 0° 193° (SSW) 2,574 10.4 -15.6°
Reaches altitude 10° 19:56:02 10° 208° (SSW) 1,685 9.6 -16.1°
Maximum altitude 19:59:02 24° 264° (W) 1,040 9.1 -16.7°
Drops below altitude 10° 20:02:02 10° 320° (NW) 1,668 9.9 -17.3°
Sets 20:04:21 0° 334° (NNW) 2,542 10.6 -17.7°
